AirNav  
 
 368 users online  

7TX2 Falcon's Nest Heliport
Austin, Texas, USA

GOING TO AUSTIN?


FAA INFORMATION EFFECTIVE 01 FEBRUARY 2018

Location

FAA Identifier: 7TX2
Lat/Long: 30-25-09.0000N / 097-52-36.0000W
30-25.150000N / 097-52.600000W
30.4191667 / -97.8766667
(estimated)
Elevation: 900 ft. / 274 m (estimated)
From city: 20 miles NW of AUSTIN, TX
Time zone: UTC -6 (UTC -5 during Daylight Saving Time)
Zip code: 78732

Heliport Operations

Heliport use: Private use. Permission required prior to landing
Activation date: 06/2004
Control tower: no
ARTCC: HOUSTON CENTER
FSS: SAN ANGELO FLIGHT SERVICE STATION
Attendance: UNATNDD
Segmented circle: no

Heliport Communications

WX ASOS at RYW (7 nm NW): 119.375 (512-267-1365)
WX AWOS-3 at EDC (16 nm E): 118.825 (512-616-2967)
WX ASOS at AUS (17 nm SE): PHONE 512-369-7881
WX AWOS-3PT at GTU (19 nm NE): PHONE 512-869-3430

Nearby radio navigation aids

VOR radial/distance  VOR name  Freq  Var
CWKr272/18.1CENTEX VORTAC112.8006E
GRKr178/37.0GRAY VOR/DME111.8007E

Heliport Services

Runway Information

Helipad H1

Dimensions: 20 x 20 ft. / 6 x 6 m
Surface: concrete
Traffic pattern: leftleft

Heliport Ownership and Management from official FAA records

Ownership: Privately-owned
Owner: E. CRAIG NEMEC
6750 COMANCHE TRAIL
AUSTIN, TX 78732
Phone 214-616-4500
Manager: E. CRAIG NEMEC
6750 COMANCHE TRAIL
AUSTIN, TX 78732
Phone 214-616-4500

Heliport Operational Statistics

Aircraft based on the field: 1
Helicopters: 1
    

Instrument Procedures

There are no published instrument procedures at 7TX2.

Some nearby airports with instrument procedures:

KRYW - Lago Vista TX - Rusty Allen Airport (7 nm NW)
3R9 - Lakeway Airpark (7 nm SW)
KEDC - Austin Executive Airport (16 nm E)
KAUS - Austin-Bergstrom International Airport (17 nm SE)
KGTU - Georgetown Municipal Airport (19 nm NE)
 
Loc | Ops | Rwys | IFR | FBO | Links
Com | Nav | Svcs | Stats | Notes

AirNav Hotels Sweepstakes
 
Area around 7TX2 (Falcon's Nest Heliport)
 
Road maps at: MapQuest Bing Google
 
Aerial photo
No photo
 
Sectional chart

 
Airport distance calculator
Flying to Falcon's Nest Heliport? Find the distance to fly.

From to 7TX2

Sunrise and sunset
Times for 20-Feb-2018
 Local
(UTC-6)
 Zulu
(UTC)
Morning civil twilight06:4412:44
Sunrise07:0813:08
Sunset18:2200:22
Evening civil twilight18:4700:47

Current date and time
Zulu (UTC)  20-Feb-2018 10:13:49
Local (UTC-6)  20-Feb-2018 04:13:49
 
METAR
KRYW 
7nm NW 
200955Z AUTO 18007G19KT 10SM BKN016 OVC022 22/19 A2989 RMK AO2 T02160188
KATT 
12nm SE 
200951Z AUTO VRB06G16KT 10SM FEW019 FEW038 OVC050 22/18 A2988 RMK AO2 SLP109 T02220183 $
KAUS 
12nm SE 
200953Z 16013KT 10SM SCT020 BKN032 OVC050 22/20 A2987 RMK AO2 PK WND 17028/0905 SLP107 T02170200
KEDC 
16nm E 
192035Z AUTO 17019G30KT 10SM FEW035 BKN044 OVC065 25/18 A2984 RMK AO2
KGTU 
18nm NE 
200956Z AUTO 17011G19KT 10SM OVC019 22/18 A2991 RMK AO2 SLP122 T02170183
TAF
KAUS 
12nm SE 
200632Z 2007/2112 17015KT P6SM OVC022 FM201200 17012KT 5SM BR VCSH OVC007 FM201800 17016KT 5SM -SHRA OVC015 FM202300 18013KT P6SM OVC035 FM210700 16005KT 4SM -TSRA BKN050CB
NOTAMs
Click for the latest NOTAMs
NOTAMs are issued by the DoD/FAA and will open in a separate window not controlled by AirNav.

 

 
 

Would you like to see your business listed on this page?

 If your business provides an interesting product or service to pilots, flight crews, aircraft, or users of the Falcon's Nest Heliport, you should consider listing it here.  To start the listing process, click on the button below
 
Add a business
 

Other Pages about Falcon's Nest Heliport

Update a link
 
Copyright © AirNav, LLC. All rights reserved. Privacy Policy  Contact